Saint Johns, AZ

5:04 PM MST on February 06, 2016 (GMT -0700)
Saint Johns Industrial

Weather History for KSJN - February, 2013

Change the Weather History Date:

Tuesday, February 26, 2013

  Actual Average (KSOW) Record (KSOW)
Temperature  
Mean Temperature 30 °F -  
Max Temperature 39 °F 45 °F 71 °F (1989)
Min Temperature 19 °F 28 °F 1 °F (1977)
Degree Days  
Heating Degree Days 35    
Moisture  
Dew Point 7 °F    
Average Humidity 41    
Maximum Humidity 81    
Minimum Humidity 11    
Precipitation  
Precipitation 0.00 in - - ()
Sea Level Pressure  
Sea Level Pressure 30.01 in    
Wind  
Wind Speed 8 mph (West)    
Max Wind Speed 24 mph    
Max Gust Speed 39 mph    
Visibility 10 miles    
Events      
Averages and records for this station are not official NWS values.
T = Trace of Precipitation, MM = Missing Value Source: NWS Daily Summary

Daily Weather History Graph

Daily Weather History Graph

Search for Another Location

Airport or City:

Trip Planner

Search our weather history database for the weather conditions in past years. The results will help you decide how hot, cold, wet, or windy it might be!

Date:

Astronomy

Feb. 26, 2013 Rise Set
Actual Time 6:49 AM MST 6:11 PM MST
Civil Twilight 6:24 AM MST 6:36 PM MST
Nautical Twilight 5:55 AM MST 7:05 PM MST
Astronomical Twilight 5:26 AM MST 7:34 PM MST
Moon 7:25 PM MST (2/26) 6:58 AM MST (2/26)
Length of Visible Light 12h 11m
Length of Day
11h 21m
Full, 99% of the Moon is Illuminated
Feb 26
Full
Mar 4
Last Quarter
Mar 11
New
Mar 19
First Quarter
Mar 27
Full

Hourly Weather History & Observations

Time (MST) Temp. Windchill Dew Point Humidity Pressure Visibility Wind Dir Wind Speed Gust Speed Precip Events Conditions
12:54 AM 24.1 °F 16.0 °F 14.0 °F 65% 29.98 in 10.0 mi SSE 6.9 mph - N/A   Clear
1:54 AM 23.0 °F 15.8 °F 14.0 °F 68% 29.96 in 10.0 mi SSE 5.8 mph - N/A   Clear
2:54 AM 23.0 °F - 12.9 °F 65% 29.95 in 10.0 mi Calm Calm - N/A   Clear
3:54 AM 19.9 °F - 12.9 °F 74% 29.96 in 10.0 mi Calm Calm - N/A   Clear
4:54 AM 18.0 °F - 12.0 °F 78% 29.96 in 9.0 mi Calm Calm - N/A   Clear
5:54 AM 17.1 °F 11.7 °F 12.0 °F 81% 29.97 in 10.0 mi SE 3.5 mph - N/A   Clear
6:54 AM 19.9 °F 13.4 °F 12.0 °F 71% 29.99 in 10.0 mi South 4.6 mph - N/A   Clear
7:54 AM 30.9 °F 24.3 °F 17.1 °F 57% 29.95 in 10.0 mi SW 6.9 mph - N/A   Clear
8:54 AM 37.0 °F 30.4 °F 12.0 °F 36% 29.96 in 10.0 mi SW 9.2 mph - N/A   Clear
9:54 AM 37.0 °F 30.4 °F 15.1 °F 41% 29.98 in 10.0 mi WNW 9.2 mph - N/A   Clear
10:54 AM 39.0 °F 31.4 °F 12.9 °F 34% 29.99 in 10.0 mi WNW 12.7 mph 21.9 mph 0.00 in   Clear
11:54 AM - - - N/A% 29.99 in - WNW 17.3 mph 23.0 mph N/A   Unknown
12:54 PM 43.0 °F 33.8 °F 10.9 °F 27% 29.96 in 10.0 mi West 23.0 mph 28.8 mph N/A   Clear
1:54 PM 44.1 °F 35.9 °F 3.9 °F 19% 29.95 in 10.0 mi WNW 19.6 mph 39.1 mph N/A   Clear
2:54 PM 44.1 °F 35.4 °F 1.0 °F 17% 29.96 in 10.0 mi WNW 21.9 mph 39.1 mph N/A   Clear
3:54 PM 43.0 °F 34.2 °F -0.0 °F 17% 29.99 in 10.0 mi WNW 20.7 mph 31.1 mph N/A   Clear
4:54 PM 41.0 °F 30.9 °F -2.0 °F 16% 30.01 in 10.0 mi WNW 24.2 mph 29.9 mph N/A   Clear
5:54 PM 37.0 °F 28.1 °F -2.9 °F 18% 30.06 in 10.0 mi WNW 15.0 mph - N/A   Clear
6:54 PM 33.1 °F 24.9 °F -0.9 °F 23% 30.09 in 10.0 mi WNW 10.4 mph - N/A   Clear
7:54 PM 28.0 °F 19.3 °F 3.9 °F 36% 30.09 in 10.0 mi West 9.2 mph - N/A   Clear
8:54 PM 25.0 °F 17.1 °F 5.0 °F 43% 30.11 in 10.0 mi West 6.9 mph - N/A   Clear
9:54 PM 23.0 °F 15.8 °F 5.0 °F 46% 30.14 in 10.0 mi WNW 5.8 mph - N/A   Clear
10:54 PM 21.0 °F - 5.0 °F 50% 30.14 in 10.0 mi Calm Calm - N/A   Clear
11:54 PM 19.9 °F - 6.1 °F 55% 30.13 in 10.0 mi Calm Calm - N/A   Clear